Погода в Слуцке

Беларусь     53°01′39″N   27°33′07″E
темп.,
°C
ветер,
м/с
пор.,
м/с
влажн.,
%
обл.,
%
осадки,
мм/ч
давл.,
гПа
погр.,
м
30 июня, чт
чт3000:00+19вюв229218 0.3 101717
03:00+17вюв34961 0.3 101788
06:00+17в34945 0.0 101784
09:00+21вюв347844 0.1 1018404
12:00+25вюв336472 0.0 1018875
15:00+27вюв3356100 0.0 10171340
18:00+27ююв2463100 0.0 10171354
21:00+23в227596 0.1 101714
1 июля, пт
пт100:00+19в488478 0.0 1018134
03:00+18вюв379097 0.0 1019122
06:00+17вюв35917 0.0 1020115
09:00+22вюв457463 0.0 1020385
12:00+26вюв455346 0.0 10201209
15:00+27юв454561 0.0 10191542
18:00+26юв3555100 0.0 1019442
21:00+21вюв336997 0.0 101930
2 июля, сб
сб200:00+18юв366886 0.0 102073
03:00+16юв357372 0.0 102165
06:00+16юв34795 0.0 102162
09:00+21ююв46665 0.0 1022335
12:00+25ююв455192 0.0 10211027
15:00+27ююв3444100 0.0 10211658
18:00+28юв23507 0.0 10191543
21:00+22вюв35701 0.0 101955
3 июля, вс
вс300:00+19юв486513 0.0 1019129
03:00+19ююз377399 0.3 1019218
06:00+17зюз359749 1.3 1019143
09:00+21юз348661 3.1 1019532
12:00+24ююз34678 0.0 10181034
15:00+26ю455924 0.3 10181524
18:00+25ююз236623 0.8 10181096
21:00+20юз34881 1.4 101862
4 июля, пн
пн400:00+18юз22957 0.1 101834
03:00+17юз22965 0.1 101826
06:00+17юз22965 0.0 101845
09:00+21ююз22815 0.0 1018360
12:00+25ююз336413 0.0 10181094
15:00+26ююз345599 0.1 10171812
18:00+26зсз236438 0.6 1017702
21:00+20ссз358664 0.8 101796